This is the latest recevied weather packets stored in our database for station/object NE1CU. If no packets are shown the sender has not sent any weather packets the latest 10 day(s).
| Time | Temp. | Humidity | Pressure | Rain* | Wind** | Luminosity | Snow |
|---|---|---|---|---|---|---|---|
| 1777323256 | 20.56° C | 34% | 1023.3 hPa | 0 mm | - | 420 W/m² | - |
| 1777322954 | 20.56° C | 36% | 1023.1 hPa | 0 mm | - | 441 W/m² | - |
| 1777322652 | 20.56° C | 35% | 1023.4 hPa | 0 mm | - | 459 W/m² | - |
| 1777322349 | 20.56° C | 36% | 1023.5 hPa | 0 mm | - | 479 W/m² | - |
| 1777322046 | 20.56° C | 37% | 1023.2 hPa | 0 mm | - | 497 W/m² | - |
| 1777321743 | 20.56° C | 36% | 1023.3 hPa | 0 mm | - | 516 W/m² | - |
| 1777321439 | 20.56° C | 35% | 1023.2 hPa | 0 mm | - | 532 W/m² | - |
| 1777321136 | 20° C | 38% | 1023 hPa | 0 mm | - | 552 W/m² | - |
| 1777320834 | 20° C | 37% | 1023.2 hPa | 0 mm | - | 570 W/m² | - |
| 1777320530 | 20.56° C | 35% | 1023.2 hPa | 0 mm | - | 587 W/m² | - |
| 1777320229 | 20.56° C | 37% | 1023.2 hPa | 0 mm | - | 604 W/m² | - |
| 1777319925 | 20.56° C | 35% | 1022.9 hPa | 0 mm | - | 621 W/m² | - |
| 1777319622 | 20.56° C | 36% | 1023 hPa | 0 mm | - | 637 W/m² | - |
| 1777319319 | 20.56° C | 36% | 1022.9 hPa | 0 mm | - | 653 W/m² | - |
| 1777319016 | 20° C | 38% | 1023 hPa | 0 mm | - | 672 W/m² | - |
| 1777318713 | 20.56° C | 36% | 1022.9 hPa | 0 mm | - | 690 W/m² | - |
| 1777318409 | 20.56° C | 35% | 1022.9 hPa | 0 mm | - | 705 W/m² | - |
| 1777318106 | 20.56° C | 35% | 1023 hPa | 0 mm | - | 720 W/m² | - |
| 1777317803 | 20° C | 38% | 1023 hPa | 0 mm | - | 734 W/m² | - |
| 1777317500 | 20° C | 36% | 1023.1 hPa | 0 mm | - | 748 W/m² | - |
| 1777317197 | 20.56° C | 36% | 1023 hPa | 0 mm | - | 764 W/m² | - |
| 1777316892 | 20° C | 38% | 1023 hPa | 0 mm | - | 776 W/m² | - |
| 1777316590 | 20.56° C | 36% | 1023 hPa | 0 mm | - | 790 W/m² | - |
| 1777316287 | 19.44° C | 39% | 1023.3 hPa | 0 mm | - | 803 W/m² | - |
| 1777315983 | 19.44° C | 38% | 1023.3 hPa | 0 mm | - | 815 W/m² | - |
* Rain latest hour (hover to see other rain measurements)
** Current wind speed in m/s (hover to see current wind gust speed)